Location: Unspecified
(0.0000°N, 1.0000°E)
Time: 22:24:13
(UTC+02:00)

Amateur Radio Satellites - All Passes

Search period start: 29 September 2016 21:54
Search period end: 30 September 2016 21:54
Location: Unspecified, 0.0000°N, 1.0000°E

Satellite Date Start Highest point End Downlink Frequencies (MHz)
Time Altitude Azimuth
Cosmos 2499 29 Sep 21:54:57 22:03:09 76° 267° (W) 22:11:56 435.465 / 435.565
Oscar 11 29 Sep 21:59:00 22:01:54 18° 78° (ENE) 22:04:47 145.826/435.025
ZACube-1 29 Sep 22:04:11 22:07:25 21° 79° (E) 22:10:36 437.345
CINEMA 3 29 Sep 22:05:12 22:08:44 21° 257° (WSW) 22:12:10 145.822/145.860
AAUSAT CUBESAT 2 29 Sep 22:06:24 22:10:32 83° 82° (E) 22:14:40 437.432
PRISM 29 Sep 22:16:14 22:20:11 51° 102° (ESE) 22:24:08 437.425
HO-68 29 Sep 22:46:11 22:51:18 21° 255° (WSW) 22:56:24 435.675
COMPASS 1 29 Sep 22:54:20 22:56:36 14° 258° (WSW) 22:58:50 437.405
FUNcube-1 29 Sep 22:56:14 23:00:25 66° 258° (WSW) 23:04:30 145.935
CUBEBUG 2 29 Sep 23:01:17 23:04:06 17° 257° (WSW) 23:06:53 437.445
SRMSAT 29 Sep 23:05:37 23:08:19 13° 349° (N) 23:11:02 437.500
DELFI C3 29 Sep 23:11:01 23:14:56 62° 79° (ENE) 23:18:52 145.870
UWE-3 29 Sep 23:15:25 23:18:19 18° 258° (WSW) 23:21:10 435.000/436.395/437.385
UNISAT 6 29 Sep 23:15:33 23:19:26 27° 102° (ESE) 23:23:22 437.425
GONETS M04 29 Sep 23:28:15 23:30:34 11° 267° (W) 23:32:54
Oscar 11 29 Sep 23:34:48 23:37:45 18° 258° (WSW) 23:40:43 145.826/435.025
ZACube-1 29 Sep 23:41:15 23:43:26 14° 258° (WSW) 23:45:35 437.345
HUMSAT D 29 Sep 23:43:18 23:47:22 74° 79° (ENE) 23:51:24 437.325/437.525
ANTELSAT 29 Sep 23:50:06 23:54:41 83° 102° (ESE) 23:59:22 437.575/2403.000
JUGNU 29 Sep 23:58:04 00:00:03 12° 8° (N) 00:02:02 437.505
BEESAT 3 30 Sep 00:04:22 00:08:07 52° 112° (ESE) 00:11:53 437.485
TIGRISAT 30 Sep 00:10:12 00:14:39 55° 282° (WNW) 00:19:13 435.000
POPSAT HIP 1 30 Sep 00:21:37 00:24:00 15° 102° (ESE) 00:26:23 437.405
NANOSAT C BR1 30 Sep 00:35:38 00:38:56 22° 102° (ESE) 00:42:16 145.865
CUBEBUG 1 30 Sep 00:44:36 00:48:18 26° 78° (ENE) 00:51:59 437.445
VELOX 1 30 Sep 00:45:59 00:49:09 19° 78° (ENE) 00:52:18 145.980
M-CUBED/EXP-1 PRIME 30 Sep 00:46:17 00:48:09 12° 76° (ENE) 00:49:58 437.505
UNISAT 6 30 Sep 00:53:29 00:55:53 14° 281° (WNW) 00:58:18 437.425
ESTCUBE 1 30 Sep 00:53:36 00:58:05 65° 78° (ENE) 01:02:33 437.505/2401.250
QB50P2 30 Sep 01:00:01 01:04:11 63° 101° (E) 01:08:25 145.880/145.840
POLYITAN 1 30 Sep 01:02:11 01:06:23 63° 102° (ESE) 01:10:37 437.675
BEESAT 2 30 Sep 01:03:49 01:07:36 48° 292° (WNW) 01:11:21 435.950
SPROUT 30 Sep 01:16:32 01:19:57 23° 78° (ENE) 01:23:21 437.525
BUGSAT 1 30 Sep 01:31:48 01:35:38 41° 102° (ESE) 01:39:32 437.445
UKube-1 30 Sep 01:34:05 01:38:03 35° 78° (ENE) 01:41:59 .
JAS-2 30 Sep 01:36:42 01:44:06 85° 284° (WNW) 01:50:42 435.910
DUCHIFAT 1 30 Sep 01:37:26 01:41:27 45° 282° (WNW) 01:45:30 145.980
AISAT 30 Sep 01:37:31 01:41:59 71° 258° (WSW) 01:46:25 437.250
AUBIESAT-1 30 Sep 01:39:04 01:43:26 56° 75° (ENE) 01:47:32 437.475
50 SAT 30 Sep 01:40:12 01:43:44 59° 259° (WSW) 01:47:17 437.505
QB50P1 30 Sep 01:42:00 01:45:47 32° 281° (WNW) 01:49:36 145.935-145.965
JUGNU 30 Sep 01:45:20 01:49:50 22° 17° (NNE) 01:54:19 437.505
POPSAT HIP 1 30 Sep 01:56:16 01:59:30 21° 282° (WNW) 02:02:45 437.405
SO-50 30 Sep 02:02:07 02:05:57 29° 68° (ENE) 02:09:45 436.795
DX 1 30 Sep 02:06:12 02:10:28 53° 257° (WSW) 02:14:45 434.975-435.025
AIST 2 30 Sep 02:07:33 02:09:08 12° 112° (ESE) 02:10:44 435.215
NANOSAT C BR1 30 Sep 02:12:13 02:14:23 14° 282° (WNW) 02:16:35 145.865
M-CUBED/EXP-1 PRIME 30 Sep 02:18:26 02:22:26 30° 253° (WSW) 02:26:14 437.505
CUBEBUG 1 30 Sep 02:22:08 02:24:18 13° 258° (WSW) 02:26:27 437.445
VELOX 1 30 Sep 02:22:13 02:25:20 19° 258° (WSW) 02:28:27 145.980
TISAT 1 30 Sep 02:29:19 02:33:03 31° 78° (ENE) 02:36:46 437.305
SRMSAT 30 Sep 02:46:12 02:48:55 13° 11° (N) 02:51:37 437.500
SPROUT 30 Sep 02:53:26 02:55:37 14° 258° (WSW) 02:57:47 437.525
Gurwin Techsat 1B 30 Sep 02:54:04 02:58:23 25° 103° (ESE) 03:02:42 435.225
Cosmos 2491 30 Sep 03:09:18 03:17:33 45° 87° (E) 03:25:44 435.465 / 435.565
Oscar 19 30 Sep 03:18:36 03:23:37 60° 282° (WNW) 03:28:40 437.125/150
JUGNU 30 Sep 03:33:20 03:39:05 57° 21° (NNE) 03:44:49 437.505
YUBILEINY 30 Sep 03:39:56 03:48:44 70° 93° (E) 03:57:26 435.215
AIST 2 30 Sep 03:44:04 03:47:22 24° 292° (WNW) 03:50:40 435.215
SO-50 30 Sep 03:44:29 03:46:09 12° 247° (WSW) 03:47:49 436.795
ITUPSAT 1 30 Sep 03:46:14 03:50:44 42° 78° (ENE) 03:55:13 437.325
PCSat 30 Sep 03:47:26 03:52:46 60° 109° (ESE) 03:58:04 145.827
SWISSCUBE 30 Sep 03:57:55 04:02:39 75° 79° (ENE) 04:07:23 437.505
BEESAT 30 Sep 04:10:38 04:15:23 86° 255° (WSW) 04:20:08 436.000
ITAMSAT 1 30 Sep 04:16:17 04:21:18 48° 103° (ESE) 04:26:20 435.822/435.867
AO-7 30 Sep 04:26:10 04:33:25 34° 107° (ESE) 04:40:41 29.400- 29.500
SRMSAT 30 Sep 04:33:45 04:38:43 28° 18° (NNE) 04:43:42 437.500
Gurwin Techsat 1B 30 Sep 04:34:11 04:38:03 21° 283° (WNW) 04:41:56 435.225
Cosmos 2491 30 Sep 05:07:36 05:13:58 22° 267° (W) 05:20:21 435.465 / 435.565
AIST 1 30 Sep 05:09:23 05:12:14 17° 94° (E) 05:15:04
Cosmos 2504 30 Sep 05:09:44 05:17:40 71° 273° (W) 05:25:02 435.465 / 435.565
MOZHAYETS 4 30 Sep 05:18:23 05:22:56 82° 79° (E) 05:27:29
JUGNU 30 Sep 05:22:26 05:28:06 51° 201° (SSW) 05:33:48 437.505
ISS 30 Sep 05:27:10 05:29:20 16° 54° (NE) 05:31:30 145.825
KKS-1 30 Sep 05:28:18 05:32:44 61° 78° (ENE) 05:37:07 437.445
YUBILEINY 30 Sep 05:41:36 05:45:06 13° 273° (W) 05:48:37 435.215
STARS 30 Sep 05:56:05 06:00:26 57° 78° (ENE) 06:04:43 437.465
RS-15 30 Sep 06:04:03 06:12:37 22° 67° (ENE) 06:20:52 29.354- 29.394
AO-7 30 Sep 06:18:43 06:25:49 32° 286° (WNW) 06:32:59 29.400- 29.500
SRMSAT 30 Sep 06:22:07 06:28:02 73° 21° (NNE) 06:34:00 437.500
BRITE-PL 30 Sep 06:23:40 06:26:19 16° 101° (E) 06:28:56 437.365/2234.400
CUBESAT XI-V 30 Sep 06:43:49 06:48:30 86° 75° (ENE) 06:53:11 437.345
AIST 1 30 Sep 06:46:31 06:49:32 18° 274° (W) 06:52:33
HORYU 2 30 Sep 07:00:54 07:05:17 56° 282° (WNW) 07:09:41 437.375
ISS 30 Sep 07:03:39 07:05:37 15° 234° (SW) 07:07:35 145.825
JUGNU 30 Sep 07:13:05 07:17:24 21° 196° (SSW) 07:21:43 437.505
O/OREOS (USA 219) 30 Sep 07:17:57 07:22:26 70° 285° (WNW) 07:26:56 437.305
NOAA 18 30 Sep 07:31:06 07:35:57 33° 103° (ESE) 07:40:51 137.9125
CUSAT 1 30 Sep 07:31:46 07:37:32 54° 82° (E) 07:41:57 437.405
PHONESAT 2.4 30 Sep 07:32:20 07:35:12 64° 317° (NW) 07:38:04 2401.200-2431.200
GOMX 1 30 Sep 07:38:01 07:42:06 63° 102° (ESE) 07:46:15 467.674
DANDE 30 Sep 07:41:36 07:47:30 26° 81° (E) 07:52:27 436.750
AO-85 30 Sep 07:43:31 07:46:26 21° 68° (ENE) 07:49:22 145.980
NOAA 15 30 Sep 07:47:05 07:52:21 89° 102° (ESE) 07:57:37 137.62
DOVE 4 30 Sep 07:48:28 07:52:00 27° 102° (ESE) 07:55:40 437.250
BRITE-PL 30 Sep 08:01:46 08:04:35 17° 282° (WNW) 08:07:22 437.365/2234.400
GONETS M04 30 Sep 08:06:22 08:11:18 16° 93° (E) 08:16:13
CUTE-I 30 Sep 08:10:45 08:16:02 63° 283° (WNW) 08:21:21 437.470
Cubesat XI-IV 30 Sep 08:11:20 08:16:37 63° 282° (WNW) 08:21:56 437.490
SRMSAT 30 Sep 08:11:43 08:17:17 41° 200° (SSW) 08:22:54 437.500
RS-15 30 Sep 08:12:57 08:24:50 65° 250° (WSW) 08:36:11 29.354- 29.394
LilacSat-2 30 Sep 08:16:39 08:20:08 32° 281° (W) 08:23:38 437.200
Cosmos 2499 30 Sep 08:17:55 08:21:13 13° 95° (E) 08:24:25 435.465 / 435.565
CANX-2 30 Sep 08:26:05 08:27:28 11° 102° (ESE) 08:28:52 2200.000
STRAND 1 30 Sep 08:40:37 08:45:37 57° 77° (ENE) 08:50:35 437.568
CINEMA 3 30 Sep 08:43:39 08:47:29 29° 103° (ESE) 08:51:29 145.822/145.860
HO-68 30 Sep 08:49:02 08:55:24 35° 105° (ESE) 09:01:45 435.675
JUGNU 30 Sep 09:05:36 09:07:13 11° 187° (S) 09:08:52 437.505
NOAA 18 30 Sep 09:12:52 09:16:20 17° 283° (WNW) 09:19:49 137.9125
COMPASS 1 30 Sep 09:22:05 09:25:28 24° 102° (ESE) 09:28:50 437.405
DANDE 30 Sep 09:23:45 09:30:00 30° 270° (W) 09:35:11 436.750
AO-85 30 Sep 09:25:20 09:26:35 11° 247° (WSW) 09:27:49 145.980
DOVE 4 30 Sep 09:28:28 09:29:31 11° 281° (W) 09:30:35 437.250
CUBEBUG 2 30 Sep 09:35:43 09:39:40 30° 102° (ESE) 09:43:43 437.445
UWE-3 30 Sep 09:49:04 09:52:53 27° 102° (ESE) 09:56:47 435.000/436.395/437.385
SEEDS 30 Sep 09:54:13 09:58:24 64° 281° (W) 10:02:35 437.485
CUTE 1.7 + AOD 2 30 Sep 09:57:25 10:01:19 35° 281° (WNW) 10:05:13 437.475
GONETS M04 30 Sep 09:59:07 10:07:43 60° 273° (W) 10:16:22
CANX-2 30 Sep 09:59:24 10:03:03 27° 282° (WNW) 10:06:42 2200.000
SRMSAT 30 Sep 10:02:56 10:06:53 18° 194° (SSW) 10:10:51 437.500
Cosmos 2499 30 Sep 10:06:45 10:14:08 55° 273° (W) 10:21:05 435.465 / 435.565
Oscar 11 30 Sep 10:07:02 10:10:32 24° 102° (ESE) 10:14:02 145.826/435.025
AAUSAT CUBESAT 2 30 Sep 10:09:57 10:14:07 86° 276° (W) 10:18:16 437.432
ZACube-1 30 Sep 10:12:57 10:16:57 32° 102° (ESE) 10:21:01 437.345
PRISM 30 Sep 10:18:51 10:22:56 58° 78° (ENE) 10:27:01 437.425
CINEMA 3 30 Sep 10:22:49 10:24:25 12° 281° (W) 10:26:03 145.822/145.860
HO-68 30 Sep 10:37:10 10:42:47 25° 285° (WNW) 10:48:26 435.675
COMPASS 1 30 Sep 10:58:57 11:00:44 12° 282° (WNW) 11:02:32 437.405
FUNcube-1 30 Sep 11:05:16 11:09:35 49° 281° (WNW) 11:14:00 145.935
DELFI C3 30 Sep 11:09:42 11:13:36 59° 101° (ESE) 11:17:31 145.870
CUBEBUG 2 30 Sep 11:14:08 11:16:03 12° 281° (W) 11:17:58 437.445
UWE-3 30 Sep 11:26:45 11:29:06 14° 281° (W) 11:31:27 435.000/436.395/437.385
UNISAT 6 30 Sep 11:28:54 11:32:59 39° 79° (ENE) 11:36:59 437.425
Oscar 11 30 Sep 11:44:08 11:46:24 14° 282° (WNW) 11:48:40 145.826/435.025
HUMSAT D 30 Sep 11:47:42 11:52:01 88° 101° (ESE) 11:56:20 437.325/437.525
ZACube-1 30 Sep 11:51:33 11:52:58 11° 281° (WNW) 11:54:25 437.345
SRMSAT 30 Sep 11:55:52 11:57:03 11° 185° (S) 11:58:14 437.500
BEESAT 3 30 Sep 11:56:30 12:00:21 54° 68° (ENE) 12:04:12 437.485
ANTELSAT 30 Sep 12:03:55 12:08:15 62° 259° (WSW) 12:12:28 437.575/2403.000
QB50P1 30 Sep 12:15:05 12:16:31 11° 78° (ENE) 12:17:56 145.935-145.965
TIGRISAT 30 Sep 12:24:06 12:28:02 34° 258° (WSW) 12:31:55 435.000
POPSAT HIP 1 30 Sep 12:27:24 12:30:16 18° 78° (ENE) 12:33:07 437.405
NANOSAT C BR1 30 Sep 12:41:14 12:44:48 27° 78° (ENE) 12:48:21 145.865
JUGNU 30 Sep 12:43:48 12:47:27 16° 166° (SSE) 12:51:07 437.505
CUBEBUG 1 30 Sep 12:54:21 12:58:16 35° 102° (ESE) 13:02:11 437.445
VELOX 1 30 Sep 12:56:58 13:00:39 27° 102° (ESE) 13:04:20 145.980
BEESAT 2 30 Sep 12:57:11 13:01:00 46° 248° (WSW) 13:04:49 435.950
QB50P2 30 Sep 13:06:24 13:10:39 79° 80° (E) 13:14:51 145.880/145.840
ESTCUBE 1 30 Sep 13:07:38 13:12:08 79° 282° (WNW) 13:16:38 437.505/2401.250
POLYITAN 1 30 Sep 13:08:36 13:12:50 80° 78° (ENE) 13:17:01 437.675
JAS-2 30 Sep 13:09:06 13:14:36 48° 76° (ENE) 13:20:45 435.910
SPROUT 30 Sep 13:23:27 13:27:08 29° 102° (ESE) 13:30:51 437.525
50 SAT 30 Sep 13:28:41 13:32:17 83° 102° (ESE) 13:35:54 437.505
BUGSAT 1 30 Sep 13:34:56 13:38:58 47° 78° (ENE) 13:42:55 437.445
AUBIESAT-1 30 Sep 13:38:16 13:41:36 44° 106° (ESE) 13:45:11 437.475
UKube-1 30 Sep 13:42:20 13:46:27 46° 102° (ESE) 13:50:34 .
DUCHIFAT 1 30 Sep 13:43:09 13:47:03 37° 258° (WSW) 13:50:55 145.980
SRMSAT 30 Sep 13:45:47 13:47:27 11° 174° (S) 13:49:08 437.500
QB50P1 30 Sep 13:48:27 13:52:01 26° 258° (WSW) 13:55:33 145.935-145.965
AISAT 30 Sep 13:49:19 13:53:30 47° 282° (WNW) 13:57:44 437.250
POPSAT HIP 1 30 Sep 14:02:58 14:05:47 17° 258° (WSW) 14:08:36 437.405
AIST 2 30 Sep 14:04:56 14:07:27 15° 68° (ENE) 14:09:57 435.215
SO-50 30 Sep 14:13:50 14:18:35 58° 112° (ESE) 14:23:21 436.795
Oscar 19 30 Sep 14:14:24 14:18:18 22° 77° (ENE) 14:22:10 437.125/150
DX 1 30 Sep 14:16:00 14:20:00 38° 282° (WNW) 14:24:02 434.975-435.025
M-CUBED/EXP-1 PRIME 30 Sep 14:18:21 14:21:12 25° 284° (WNW) 14:24:14 437.505
NANOSAT C BR1 30 Sep 14:18:56 14:20:15 11° 258° (WSW) 14:21:32 145.865
YUBILEINY 30 Sep 14:21:29 14:25:40 14° 87° (E) 14:29:51 435.215
JUGNU 30 Sep 14:31:28 14:36:57 37° 160° (SSE) 14:42:26 437.505
TISAT 1 30 Sep 14:34:17 14:38:07 36° 102° (ESE) 14:42:01 437.305
VELOX 1 30 Sep 14:34:58 14:36:50 13° 282° (WNW) 14:38:42 145.980
PCSat 30 Sep 14:43:42 14:45:44 12° 70° (ENE) 14:47:48 145.827
JAS-2 30 Sep 14:57:19 14:59:37 12° 260° (W) 15:02:01 435.910
SPROUT 30 Sep 15:01:54 15:02:48 11° 282° (WNW) 15:03:43 437.525
Cosmos 2504 30 Sep 15:29:59 15:34:46 17° 88° (E) 15:39:40 435.465 / 435.565
Gurwin Techsat 1B 30 Sep 15:31:37 15:36:56 74° 77° (ENE) 15:42:12 435.225
SRMSAT 30 Sep 15:33:15 15:37:33 20° 165° (SSE) 15:41:50 437.500
Cosmos 2491 30 Sep 15:42:27 15:51:14 86° 93° (E) 16:00:01 435.465 / 435.565
AIST 2 30 Sep 15:42:33 15:45:40 20° 248° (WSW) 15:48:47 435.215
Oscar 19 30 Sep 15:53:15 15:57:20 23° 257° (WSW) 16:01:24 437.125/150
ITUPSAT 1 30 Sep 16:08:09 16:12:57 86° 101° (ESE) 16:17:46 437.325
YUBILEINY 30 Sep 16:13:30 16:22:02 64° 267° (W) 16:30:40 435.215
SWISSCUBE 30 Sep 16:19:52 16:24:32 56° 282° (WNW) 16:29:14 437.505
JUGNU 30 Sep 16:20:03 16:26:04 82° 339° (NNW) 16:32:05 437.505
PCSat 30 Sep 16:23:48 16:28:53 43° 251° (WSW) 16:33:58 145.827
BEESAT 30 Sep 16:32:40 16:37:12 43° 282° (WNW) 16:41:44 436.000
ITAMSAT 1 30 Sep 16:51:15 16:56:22 63° 257° (WSW) 17:01:27 435.822/435.867
AO-7 30 Sep 16:51:48 16:59:55 56° 74° (ENE) 17:07:58 29.400- 29.500
ISS 30 Sep 17:03:01 17:03:19 10° 126° (SE) 17:03:37 145.825
AIST 1 30 Sep 17:15:24 17:18:44 22° 86° (E) 17:22:04
Cosmos 2504 30 Sep 17:19:46 17:27:35 57° 266° (W) 17:36:01 435.465 / 435.565
SRMSAT 30 Sep 17:21:19 17:27:05 47° 160° (SSE) 17:32:48 437.500
MOZHAYETS 4 30 Sep 17:35:02 17:39:35 59° 282° (WNW) 17:44:09
KKS-1 30 Sep 17:40:38 17:45:03 88° 282° (WNW) 17:49:30 437.445
RS-15 30 Sep 17:47:42 17:53:39 16° 112° (ESE) 17:59:40 29.354- 29.394
STARS 30 Sep 18:06:45 18:11:07 83° 103° (ESE) 18:15:32 437.465
JUGNU 30 Sep 18:10:00 18:15:14 31° 341° (NNW) 18:20:27 437.505
ISS 30 Sep 18:36:58 18:39:36 23° 306° (NW) 18:42:14 145.825
AO-7 30 Sep 18:46:51 18:52:16 19° 253° (WSW) 18:57:41 29.400- 29.500
NOAA 15 30 Sep 18:47:04 18:50:13 16° 77° (ENE) 18:53:21 137.62
BRITE-PL 30 Sep 18:47:16 18:52:37 49° 78° (ENE) 18:58:04 437.365/2234.400
AIST 1 30 Sep 18:54:20 18:56:02 12° 266° (W) 18:57:45
PHONESAT 2.4 30 Sep 18:56:32 18:59:25 54° 43° (NE) 19:02:18 2401.200-2431.200
CUBESAT XI-V 30 Sep 19:02:17 19:06:47 52° 282° (WNW) 19:11:17 437.345
SRMSAT 30 Sep 19:10:23 19:16:19 63° 339° (NNW) 19:22:13 437.500
CUTE-I 30 Sep 19:11:24 19:15:40 25° 77° (ENE) 19:19:55 437.470
Cubesat XI-IV 30 Sep 19:12:08 19:16:26 25° 77° (ENE) 19:20:42 437.490
HORYU 2 30 Sep 19:13:42 19:17:47 37° 258° (WSW) 19:21:50 437.375
O/OREOS (USA 219) 30 Sep 19:29:14 19:33:28 39° 256° (WSW) 19:37:41 437.305
AO-85 30 Sep 19:54:03 19:59:18 53° 112° (ESE) 20:04:29 145.980
RS-15 30 Sep 19:54:34 20:05:37 77° 291° (WNW) 20:17:14 29.354- 29.394
GOMX 1 30 Sep 20:00:27 20:05:54 62° 258° (WSW) 20:11:14 467.674
JUGNU 30 Sep 20:01:40 20:04:50 14° 348° (NNW) 20:07:59 437.505
CUSAT 1 30 Sep 20:06:44 20:11:21 51° 278° (W) 20:17:21 437.405
DOVE 4 30 Sep 20:07:59 20:13:11 61° 79° (E) 20:18:10 437.250
LilacSat-2 30 Sep 20:11:11 20:14:43 38° 259° (WSW) 20:18:13 437.200
NOAA 18 30 Sep 20:15:01 20:20:31 77° 257° (WSW) 20:25:59 137.9125
DANDE 30 Sep 20:23:53 20:27:30 59° 93° (E) 20:32:19 436.750
Cosmos 2499 30 Sep 20:23:55 20:29:54 22° 88° (E) 20:36:06 435.465 / 435.565
NOAA 15 30 Sep 20:25:02 20:29:42 32° 257° (WSW) 20:34:23 137.62
BRITE-PL 30 Sep 20:28:39 20:30:47 12° 258° (WSW) 20:32:57 437.365/2234.400
CUTE 1.7 + AOD 2 30 Sep 20:31:10 20:32:05 11° 78° (ENE) 20:33:01 437.475
CANX-2 30 Sep 20:31:44 20:33:55 14° 78° (ENE) 20:36:07 2200.000
GONETS M04 30 Sep 20:37:19 20:44:58 34° 87° (E) 20:52:33
HO-68 30 Sep 20:41:02 20:47:04 30° 75° (ENE) 20:53:04 435.675
CUTE-I 30 Sep 20:51:32 20:55:26 21° 257° (WSW) 20:59:21 437.470
Cubesat XI-IV 30 Sep 20:52:19 20:56:14 21° 257° (WSW) 21:00:07 437.490
CINEMA 3 30 Sep 20:59:52 21:04:30 52° 79° (E) 21:08:53 145.822/145.860
SRMSAT 30 Sep 21:00:55 21:05:41 25° 343° (NNW) 21:10:27 437.500
STRAND 1 30 Sep 21:13:07 21:18:09 56° 283° (WNW) 21:23:12 437.568
COMPASS 1 30 Sep 21:26:05 21:29:36 27° 79° (ENE) 21:33:08 437.405
AO-85 30 Sep 21:38:45 21:39:33 10° 292° (WNW) 21:40:21 145.980
